Location: Long Geng
(2.6167°N, 114.1333°E)
Time: 19:19:14
(UTC+00:00)

BLOCK DM-SL R/B - Pass Details

Date: 23 September 2021
Orbit: 646 x 35620 km, 0.3° (Epoch: 16 October)

Event Time Altitude Azimuth Distance (km) Brightness Sun altitude
Rises 14:42:44 0° 269° (W) 16,357 10.6 -66.6°
Reaches altitude 10° 15:06:01 10° 268° (W) 9,177 9.1 -72.4°
Enters shadow 15:17:02 23° 265° (W) 4,833 7.5 -75.2°
